MDT,Max TemperatureF,Mean TemperatureF,Min TemperatureF,Max Dew PointF,MeanDew PointF,Min DewpointF,Max Humidity, Mean Humidity, Min Humidity, Max Sea Level PressureIn, Mean Sea Level PressureIn, Min Sea Level PressureIn, Max VisibilityMiles, Mean VisibilityMiles, Min VisibilityMiles, Max Wind SpeedMPH, Mean Wind SpeedMPH, Max Gust SpeedMPH,PrecipitationIn, CloudCover, Events, WindDirDegrees
2012-10-1,68,55,42,46,36,27,86,54,22,30.33,30.18,29.99,10,10,10,24,10,31,0.00,2,,1
2012-10-2,85,64,42,32,29,28,57,35,13,29.94,29.77,29.70,10,10,10,25,8,29,0.00,0,,40
2012-10-3,58,47,36,39,34,31,85,65,44,30.33,29.99,29.70,10,10,10,44,25,53,T,4,Rain,337
2012-10-4,49,41,32,30,26,23,82,64,45,30.45,30.39,30.30,10,10,10,29,13,35,0.00,7,,346
2012-10-5,45,38,30,27,23,20,72,56,39,30.44,30.41,30.34,10,10,10,14,5,17,0.00,7,,350
2012-10-6,45,33,21,23,19,14,71,51,30,30.49,30.39,30.20,10,10,5,15,6,21,T,4,Snow,323
2012-10-7,62,40,18,28,21,12,73,48,23,30.25,30.05,29.87,10,10,10,22,5,29,0.00,0,,301
2012-10-8,60,50,39,40,32,24,83,57,30,29.94,29.84,29.77,10,10,10,31,16,36,0.00,6,,319
2012-10-9,48,41,33,36,29,25,82,64,45,30.19,30.09,29.95,10,10,9,31,15,38,T,6,Rain,331
2012-10-10,72,48,24,30,26,21,88,53,17,30.17,29.99,29.85,10,10,9,22,7,29,0.00,0,,32
2012-10-11,47,38,28,33,29,24,85,67,49,30.36,30.25,30.00,10,10,7,22,9,26,0.00,5,,54
2012-10-12,72,52,32,34,29,25,78,51,24,30.30,29.92,29.69,10,10,10,39,16,49,0.00,0,,168
2012-10-13,74,60,45,38,32,29,56,38,19,30.00,29.79,29.63,10,10,10,31,16,39,T,3,,340
2012-10-14,71,55,39,37,32,27,76,49,22,30.06,30.02,29.98,10,10,10,25,11,31,0.00,0,,317
2012-10-15,78,58,38,40,30,26,60,38,15,29.94,29.79,29.70,10,10,10,22,7,28,0.00,1,,35
2012-10-16,71,56,40,49,38,33,86,56,25,29.77,29.53,29.32,10,10,9,38,11,46,0.12,3,Rain,293
2012-10-17,54,48,41,32,22,15,70,48,26,29.82,29.69,29.51,10,10,10,54,34,67,0.00,2,,315
2012-10-18,53,44,34,23,16,9,43,32,21,30.04,29.92,29.77,10,10,10,56,37,70,0.00,0,,323
2012-10-19,62,44,26,23,18,9,58,39,20,30.05,29.87,29.71,10,10,10,15,6,17,0.00,0,,166
2012-10-20,80,58,36,37,28,23,59,37,14,29.70,29.57,29.44,10,10,10,30,12,36,0.00,0,,306
2012-10-21,58,52,45,40,35,30,71,55,38,30.01,29.88,29.64,10,10,10,28,13,37,0.00,3,,2
2012-10-22,49,43,36,39,36,33,100,80,60,30.01,29.88,29.67,10,10,10,17,11,20,T,7,,142
2012-10-23,56,46,36,43,39,35,100,78,55,29.93,29.77,29.63,10,10,9,38,11,45,0.01,4,Rain,9
2012-10-24,42,37,31,41,33,27,100,88,75,30.17,30.01,29.89,10,6,1,28,14,32,0.31,8,Rain-Snow,345
2012-10-25,33,28,23,26,23,19,92,82,72,30.49,30.30,30.15,10,10,9,26,17,32,0.00,5,Snow,345
2012-10-26,39,28,16,24,21,14,96,72,48,30.55,30.43,30.26,10,10,10,20,6,24,0.00,5,,104
2012-10-27,46,32,18,27,23,16,96,67,37,30.24,30.18,30.09,10,10,10,17,5,25,0.00,2,,13
2012-10-28,53,38,22,33,27,20,89,64,38,30.17,30.06,29.95,10,10,10,21,6,24,0.00,4,,123
2012-10-29,64,50,35,40,36,30,85,61,37,30.04,29.98,29.93,10,10,10,14,4,16,0.00,3,,62
2012-10-30,67,53,39,39,36,33,76,54,32,30.06,30.02,29.96,10,10,10,16,8,17,0.00,0,,330
2012-10-31,73,54,34,36,33,29,89,56,22,30.10,30.03,29.98,10,10,10,24,8,29,0.00,0,,336